[[{"header":{"parameterUnit":"m.s-1","parameterCategory":1,"la1":30.2991,"la2":30.254,"lo1":-89.0895,"lo2":-89.0444,"dy":0.0017,"dx":0.0017,"nx":28,"ny":28,"refTime":"2025-06-14T21:00:00:Z","depth":0,"parameterNumber":2,"parameterNumberName":"U-component_of_WINDS"},"data":[0,0,0,0,0,0,0,0,0,0,0,0,0,0,0,0,0,0,0,0,0,0,0,0,0,0,0,0,0,0,0,0,0,0,0,0,0,0,0,0,0,0,0,0,0,0,0,0,0,0,0,0,0,0,0,0,0,0,3.1353,3.1354,0,3.1407,3.1407,3.1408,3.1351,3.1349,3.1347,3.1345,3.1402,3.1406,3.1409,0,0,0,0,0,0,0,0,0,0,0,0,0,3.12,3.1203,3.1353,3.1354,3.1354,3.1407,3.1407,3.1408,3.1352,3.1349,3.1346,3.1344,3.1401,3.1405,3.1409,0,0,0,0,0,0,0,0,0,0,0,0,0,3.1262,3.1204,3.1353,3.1332,3.1331,3.1407,3.1407,3.1408,3.1352,3.1349,3.1346,3.1342,3.14,3.1405,3.141,3.1509,0,0,3.1426,3.1429,0,0,0,0,0,0,0,0,3.1258,3.1267,3.1335,3.1334,3.1332,3.1369,3.1375,3.1442,3.1353,3.1344,3.1345,3.1341,3.1394,3.1399,3.1417,3.1512,3.1514,3.1427,3.143,3.1433,3.1434,0,0,0,0,0,0,0,3.1254,3.1265,3.1374,3.1336,3.1334,3.132,3.1325,3.1387,3.1387,3.1345,3.1341,3.1348,3.1393,3.1412,3.1418,3.1515,3.1427,3.1432,3.1435,3.1437,3.1689,3.1692,0,0,0,0,0,0,3.1252,3.1262,3.1373,3.1376,3.1286,3.1326,3.1331,3.1361,3.1386,3.1387,3.135,3.1345,3.1404,3.1412,3.142,3.1533,3.1432,3.1437,3.1441,3.1685,3.1689,3.1693,0,0,0,0,0,0,3.1249,3.1263,3.137,3.1318,3.133,3.1332,3.1365,3.1363,3.1382,3.139,3.139,3.137,3.1402,3.1412,3.1486,3.1534,3.144,3.1445,3.1681,3.1687,3.1691,3.1763,0,0,0,0,0,0,3.1245,3.1262,3.13,3.1319,3.1333,3.1436,3.1368,3.1367,3.1392,3.1385,3.1409,3.141,3.14,3.1478,3.1491,3.154,3.1449,3.1677,3.1684,3.169,3.1757,3.177,3.1782,0,0,0,0,0,3.124,3.132,3.1302,3.1316,3.1381,3.1439,3.1447,3.1434,3.1396,3.1433,3.1438,3.1409,3.1528,3.1486,3.1501,3.1552,3.1674,3.1682,3.1689,3.1751,3.1768,3.1782,0,0,0,0,0,0,3.1308,3.1322,3.1303,3.1391,3.1414,3.1429,3.1477,3.1453,3.1488,3.1481,3.1464,3.147,3.1547,3.1557,3.1511,3.1646,3.1594,3.1605,3.1636,3.1652,3.1665,3.1659,3.1453,0,0,0,0,0,3.1333,3.1379,3.1389,3.1466,3.1479,3.1476,3.1501,3.1488,3.1512,3.1522,3.1532,3.1556,3.1598,3.1626,3.1666,3.1759,3.1761,3.1801,3.1813,3.1824,3.1833,3.1878,3.1894,3.1719,3.1719,3.1719,0,0,3.1386,3.14,3.143,3.148,3.1497,3.1543,3.1485,3.1538,3.1572,3.153,3.1598,3.1607,3.1633,3.1715,3.1752,3.1726,3.1882,3.1834,3.1842,3.1845,3.1887,3.1904,3.1919,3.1724,3.1723,3.1722,0,0,3.1506,3.1522,3.1585,3.1602,3.1627,3.1624,3.1639,3.1657,3.166,3.1729,3.1697,3.1738,3.1812,3.183,3.1849,3.1971,3.1944,3.1985,3.2051,3.2095,3.2108,3.212,3.216,3.2175,3.1994,3.1995,3.1995,0,3.1568,3.1637,3.1622,3.1675,3.1697,3.1659,3.1722,3.174,3.1777,3.1792,3.1763,3.1852,3.1867,3.195,3.198,3.1998,3.2013,3.1981,3.2108,3.212,3.2131,3.2168,3.2183,3.1999,3.1998,3.1998,3.1998,0,3.1711,3.1759,3.1808,3.1841,3.1869,3.1927,3.1919,3.1949,3.1933,3.1933,3.2001,3.2018,3.2058,3.2077,3.2065,3.2158,3.2141,3.211,3.2057,3.2152,3.2186,3.2201,3.2005,3.2004,3.2002,3.2001,0,0,3.1875,3.1896,3.1914,3.1927,3.195,3.1987,3.2043,3.208,3.2104,3.2131,3.2175,3.2237,3.2207,3.2228,3.2217,3.2256,3.2346,3.222,3.222,3.2239,3.2445,3.2465,3.2483,3.233,3.2332,3.2335,3.2442,0,3.1991,3.2086,3.2072,3.2163,3.2205,3.2169,3.2217,3.2236,3.2236,3.2272,3.2273,3.2316,3.2276,3.2287,3.2325,3.2328,3.2387,3.232,3.2368,3.237,3.2359,3.2501,3.2524,3.2624,3.2456,3.2458,3.246,0,3.2139,3.2168,3.2262,3.2274,3.2292,3.2335,3.2366,3.2401,3.2421,3.2418,3.2441,3.2421,3.2475,3.2423,3.2495,3.245,3.2469,3.2473,3.2476,3.2478,3.2418,3.2503,3.2656,3.267,3.2482,3.248,3.2478,0,3.2243,3.2306,3.2369,3.2382,3.24,3.243,3.2439,3.2455,3.2477,3.2505,3.2518,3.2553,3.2571,3.2597,3.2586,3.255,3.2659,3.2607,3.2657,3.2657,3.2679,3.2677,3.2834,3.2698,3.2698,3.2698,3.2697,0,3.2372,3.2431,3.2416,3.2455,3.2518,3.2501,3.2564,3.2568,3.2582,3.262,3.2593,3.2629,3.2615,3.265,3.2642,3.2701,3.271,3.2708,3.2705,3.2709,3.2708,3.2718,3.271,3.2701,3.2701,3.27,3.2699,0,3.2499,3.2492,3.2557,3.2567,3.2571,3.2616,3.2624,3.266,3.2658,3.2706,3.2716,3.2713,3.2752,3.2745,3.279,3.2784,3.2856,3.2846,3.2849,3.2845,3.2893,3.2887,3.3059,3.3078,3.2934,3.2935,3.2936,0,3.258,3.2623,3.2636,3.2658,3.2668,3.2706,3.2727,3.2712,3.2735,3.2759,3.2791,3.2827,3.2855,3.2919,3.2921,3.2954,3.2942,3.3,3.2947,3.2947,3.2938,3.2933,3.2936,3.3009,3.3011,3.3012,3.3014,0,3.2722,3.2715,3.2747,3.2776,3.2801,3.2824,3.2845,3.2865,3.2851,3.2878,3.2917,3.2938,3.2982,3.3017,3.3047,3.3055,3.3031,3.303,3.3043,3.3045,3.3043,3.304,3.2873,3.3026,3.3025,3.3024,3.3023,3.3023,3.2825,3.286,3.2873,3.2908,3.2921,3.294,3.2972,3.2973,3.3004,3.3037,3.3026,3.3069,3.3085,3.3122,3.3134,3.3166,3.3145,3.3164,3.3168,3.3172,3.3175,3.304,3.3172,3.3172,3.3172,3.3171,3.3171,0,3.2962,3.2968,3.3001,3.3028,3.3054,3.3029,3.3049,3.3073,3.3111,3.3127,3.3154,3.3196,3.323,3.3233,3.3264,3.329,3.3279,3.3298,3.3294,3.3296,3.3195,3.3179,3.3306,3.3306,3.3306,3.3306,3.3306,3.3306,3.3037,3.3093,3.3087,3.3149,3.3154,3.3195,3.3208,3.3224,3.3236,3.3284,3.3311,3.3313,3.3323,3.3354,3.3382,3.3382,3.3393,3.3416,3.3411,3.3317,3.3303,3.329,3.3275,3.3419,3.3419,3.3508,3.3509,3.3509]},{"header":{"parameterUnit":"m.s-1","parameterCategory":1,"la1":30.2991,"la2":30.254,"lo1":-89.0895,"lo2":-89.0444,"dy":0.0017,"dx":0.0017,"nx":28,"ny":28,"refTime":"2025-06-14T21:00:00:Z","depth":0,"parameterNumber":3,"parameterNumberName":"V-component_of_WINDS"},"data":[0,0,0,0,0,0,0,0,0,0,0,0,0,0,0,0,0,0,0,0,0,0,0,0,0,0,0,0,0,0,0,0,0,0,0,0,0,0,0,0,0,0,0,0,0,0,0,0,0,0,0,0,0,0,0,0,0,0,3.7017,3.7019,0,3.7165,3.7167,3.7168,3.7106,3.7102,3.7099,3.7095,3.7247,3.7254,3.7261,0,0,0,0,0,0,0,0,0,0,0,0,0,3.6679,3.6685,3.7017,3.7019,3.7021,3.7165,3.7167,3.7169,3.7107,3.7102,3.7098,3.7094,3.7244,3.7253,3.7262,0,0,0,0,0,0,0,0,0,0,0,0,0,3.6826,3.6688,3.7017,3.7007,3.7008,3.7164,3.7167,3.7169,3.7107,3.7102,3.7097,3.7092,3.7242,3.7252,3.7263,3.7438,0,0,3.7297,3.7302,0,0,0,0,0,0,0,0,3.6818,3.6839,3.7007,3.7008,3.7009,3.7111,3.7103,3.7259,3.7109,3.707,3.7095,3.7089,3.7206,3.722,3.7259,3.7445,3.7452,3.7298,3.7305,3.7309,3.7312,0,0,0,0,0,0,0,3.6808,3.6832,3.7075,3.7009,3.701,3.6995,3.701,3.7132,3.7166,3.7073,3.7068,3.7087,3.7206,3.7249,3.7262,3.7454,3.7298,3.7307,3.7314,3.7318,3.7788,3.7794,0,0,0,0,0,0,3.6798,3.6824,3.7071,3.708,3.6898,3.7005,3.7022,3.7084,3.7164,3.7172,3.7091,3.7083,3.7233,3.725,3.7267,3.7476,3.7309,3.732,3.7326,3.7782,3.779,3.7796,0,0,0,0,0,0,3.6791,3.682,3.7065,3.6951,3.6981,3.7017,3.7087,3.709,3.7133,3.7179,3.7184,3.7129,3.7229,3.7252,3.7396,3.748,3.7324,3.7335,3.7776,3.7785,3.7793,3.7896,0,0,0,0,0,0,3.6781,3.6818,3.6886,3.6953,3.6987,3.7191,3.7092,3.7096,3.7152,3.7143,3.7216,3.7222,3.7227,3.7379,3.7407,3.7493,3.7343,3.7768,3.778,3.779,3.7885,3.7907,3.7926,0,0,0,0,0,3.6769,3.6909,3.6889,3.6919,3.7072,3.7196,3.7216,3.7218,3.7159,3.7226,3.7256,3.722,3.7467,3.7395,3.7425,3.7516,3.7763,3.7776,3.7789,3.7876,3.7903,3.7925,0,0,0,0,0,0,3.6851,3.6918,3.6897,3.7062,3.7124,3.7186,3.7271,3.7247,3.7327,3.7315,3.7314,3.7331,3.7479,3.7511,3.743,3.7688,3.7606,3.7626,3.7661,3.7687,3.7707,3.7696,3.7352,0,0,0,0,0,3.6889,3.6984,3.7037,3.7178,3.721,3.7236,3.729,3.7286,3.735,3.7376,3.7415,3.7479,3.757,3.763,3.7717,3.7889,3.7903,3.7966,3.7986,3.8003,3.802,3.8112,3.814,3.7839,3.7839,3.7839,0,0,3.6967,3.7015,3.7075,3.7196,3.7243,3.7342,3.7258,3.7366,3.7439,3.7392,3.753,3.7561,3.7631,3.7789,3.7861,3.7821,3.8106,3.802,3.8033,3.8041,3.8128,3.8157,3.8182,3.7848,3.7847,3.7845,0,0,3.7159,3.7206,3.7328,3.7377,3.7449,3.7465,3.7494,3.7559,3.7578,3.7716,3.7682,3.7768,3.7927,3.7978,3.8024,3.8234,3.8204,3.8262,3.8369,3.8458,3.8482,3.8503,3.8576,3.8603,3.8279,3.8279,3.828,0,3.7247,3.7395,3.7393,3.7504,3.7557,3.7519,3.7641,3.7689,3.7786,3.7823,3.7777,3.7973,3.8018,3.8187,3.8238,3.8277,3.831,3.8254,3.8479,3.85,3.8519,3.8589,3.8617,3.8286,3.8285,3.8284,3.8284,0,3.7498,3.7601,3.769,3.7785,3.7848,3.7964,3.798,3.8044,3.8034,3.8054,3.8194,3.8246,3.8342,3.8382,3.8374,3.8549,3.8522,3.8478,3.8395,3.8554,3.862,3.8647,3.8295,3.8293,3.8291,3.8289,0,0,3.7748,3.7839,3.7871,3.7913,3.7989,3.8068,3.8182,3.8275,3.833,3.8398,3.8492,3.8626,3.8585,3.8638,3.8634,3.8713,3.8874,3.8658,3.866,3.8696,3.9069,3.9101,3.9132,3.8854,3.8859,3.8863,3.9062,0,3.7945,3.8144,3.8146,3.8329,3.8423,3.8387,3.8485,3.8543,3.8564,3.8646,3.8669,3.8764,3.8703,3.8734,3.881,3.8838,3.8948,3.8824,3.8941,3.8945,3.8924,3.9167,3.9202,3.9388,3.9088,3.9092,3.9096,0,3.8202,3.8278,3.8471,3.8532,3.8571,3.866,3.8744,3.8824,3.8887,3.8897,3.8956,3.894,3.9054,3.8968,3.9125,3.904,3.9088,3.9109,3.9116,3.9127,3.903,3.9184,3.9447,3.9475,3.9136,3.9133,3.913,0,3.8363,3.8513,3.8647,3.8684,3.8759,3.8822,3.8856,3.8914,3.897,3.9044,3.9079,3.9166,3.9213,3.928,3.9288,3.9224,3.9445,3.936,3.9456,3.9456,3.9504,3.9501,3.9778,3.9536,3.9535,3.9535,3.9534,0,3.8583,3.8702,3.872,3.8803,3.8935,3.8935,3.9065,3.9093,3.9145,3.9232,3.9206,3.9288,3.9293,3.9377,3.9383,3.9511,3.9533,3.9544,3.9544,3.9546,3.9545,3.9577,3.9564,3.9542,3.9541,3.9539,3.9538,0,3.8785,3.8803,3.8946,3.9005,3.9022,3.9117,3.9167,3.9245,3.9263,3.9373,3.9399,3.9427,3.9524,3.9538,3.9652,3.9657,3.981,3.9797,3.9789,3.9787,3.9882,3.9872,4.0189,4.023,3.9962,3.9964,3.9967,0,3.8924,3.9015,3.9083,3.9139,3.9176,3.9268,3.9324,3.9327,3.9386,3.9464,3.9532,3.9627,3.9702,3.9859,3.9889,3.9976,3.9964,4.0069,3.9977,3.9976,3.9965,3.9959,3.9967,4.0087,4.009,4.0092,4.0094,0,3.9169,3.9172,3.9255,3.934,3.9407,3.9474,3.9538,3.9585,3.9596,3.9664,3.9762,3.9821,3.9936,4.003,4.0115,4.0149,4.0124,4.0123,4.0149,4.0152,4.0143,4.0148,3.9837,4.0116,4.0114,4.0112,4.0111,4.011,3.9343,3.9421,3.9481,3.9573,3.9621,3.968,3.9756,3.9783,3.9865,3.996,3.9956,4.0064,4.0123,4.0235,4.0275,4.0359,4.0325,4.0364,4.0373,4.0383,4.0392,4.013,4.0375,4.0374,4.0374,4.0373,4.0373,0,3.9585,3.9622,3.9706,3.9795,3.9867,3.9836,3.9904,3.9966,4.0062,4.0119,4.0194,4.0306,4.0396,4.0434,4.0522,4.0582,4.0572,4.0605,4.06,4.0608,4.0418,4.0386,4.0611,4.0611,4.0611,4.0611,4.0611,4.0611,3.972,3.985,3.986,4.0013,4.0049,4.0155,4.0196,4.025,4.0295,4.0422,4.0497,4.052,4.0569,4.066,4.0741,4.075,4.0783,4.0821,4.0824,4.0646,4.0622,4.0599,4.0568,4.0828,4.0828,4.1007,4.1009,4.101]}]]